Weather History for KDET - March, 2013

Change the Weather History Date:

Tuesday, March 26, 2013

  Actual Average Record
Temperature  
Mean Temperature 40 °F -  
Max Temperature 45 °F 46 °F 80 °F (2007)
Min Temperature 35 °F 31 °F 12 °F (2001)
Degree Days  
Heating Degree Days 26    
Moisture  
Dew Point 27 °F    
Average Humidity 64    
Maximum Humidity 76    
Minimum Humidity 43    
Precipitation  
Precipitation 0.00 in - - ()
Sea Level Pressure  
Sea Level Pressure 30.01 in    
Wind  
Wind Speed 8 mph (NW)    
Max Wind Speed 14 mph    
Max Gust Speed 22 mph    
Visibility 10 miles    
Events      
Averages and records for this station are not official NWS values.
T = Trace of Precipitation, MM = Missing Value Source: NWS Daily Summary

Daily Weather History Graph

Daily Weather History Graph

Search for Another Location

Airport or City:

Trip Planner

Search our weather history database for the weather conditions in past years. The results will help you decide how hot, cold, wet, or windy it might be!

Date:

Astronomy

Mar. 26, 2013 Rise Set
Actual Time 7:24 AM EDT 7:51 PM EDT
Civil Twilight 6:56 AM EDT 8:19 PM EDT
Nautical Twilight 6:23 AM EDT 8:52 PM EDT
Astronomical Twilight 5:49 AM EDT 9:27 PM EDT
Moon 7:27 PM EDT (3/26) 6:40 AM EDT (3/26)
Length of Visible Light 13h 23m
Length of Day
12h 26m
Waxing Gibbous, 99% of the Moon is Illuminated
Mar 26
Waxing Gibbous
Mar 27
Full
Apr 3
Last Quarter
Apr 10
New
Apr 18
First Quarter

Hourly Weather History & Observations

Time (EDT) Temp. Windchill Dew Point Humidity Pressure Visibility Wind Dir Wind Speed Gust Speed Precip Events Conditions
12:53 AM 37.0 °F 30.4 °F 26.1 °F 65% 29.91 in 10.0 mi NNW 9.2 mph - N/A   Overcast
1:53 AM 36.0 °F 30.3 °F 26.1 °F 67% 29.91 in 10.0 mi NNW 6.9 mph - N/A   Overcast
2:53 AM 36.0 °F 31.1 °F 26.1 °F 67% 29.92 in 10.0 mi NNW 5.8 mph - N/A   Overcast
3:53 AM 35.1 °F 29.3 °F 26.1 °F 70% 29.92 in 10.0 mi NNW 6.9 mph - N/A   Overcast
4:53 AM 35.1 °F 28.6 °F 26.1 °F 70% 29.93 in 10.0 mi NNW 8.1 mph - N/A   Overcast
5:53 AM 35.1 °F 30.1 °F 26.1 °F 70% 29.95 in 10.0 mi NNW 5.8 mph - N/A   Overcast
6:53 AM 35.1 °F 29.3 °F 27.0 °F 72% 29.96 in 10.0 mi NNW 6.9 mph - N/A   Overcast
7:53 AM 35.1 °F 28.6 °F 27.0 °F 72% 29.99 in 10.0 mi NW 8.1 mph - N/A   Overcast
8:53 AM 35.1 °F 29.3 °F 28.0 °F 76% 30.01 in 10.0 mi NW 6.9 mph - N/A   Overcast
9:53 AM 36.0 °F 29.0 °F 28.0 °F 73% 30.02 in 10.0 mi NW 9.2 mph - N/A   Overcast
10:53 AM 37.0 °F 31.0 °F 28.0 °F 70% 30.03 in 10.0 mi NW 8.1 mph - N/A   Overcast
11:53 AM 39.9 °F 35.1 °F 28.0 °F 63% 30.04 in 10.0 mi Variable 6.9 mph - N/A   Overcast
12:53 PM 44.1 °F 39.5 °F 28.9 °F 55% 30.03 in 10.0 mi WNW 8.1 mph - N/A   Overcast
1:53 PM 43.0 °F 36.0 °F 25.0 °F 49% 30.02 in 10.0 mi NNW 13.8 mph 19.6 mph N/A   Mostly Cloudy
2:53 PM 44.1 °F 39.0 °F 23.0 °F 43% 30.02 in 10.0 mi North 9.2 mph - N/A   Overcast
3:53 PM 43.0 °F 36.8 °F 26.1 °F 51% 30.03 in 10.0 mi NW 11.5 mph - N/A   Overcast
4:53 PM 41.0 °F 33.9 °F 27.0 °F 57% 30.04 in 10.0 mi WNW 12.7 mph - N/A   Overcast
5:53 PM 42.1 °F 36.1 °F 24.1 °F 49% 30.05 in 10.0 mi NW 10.4 mph - N/A   Overcast
6:53 PM 39.9 °F 32.9 °F 27.0 °F 60% 30.06 in 10.0 mi NNW 11.5 mph 21.9 mph N/A   Overcast
7:53 PM 39.0 °F 33.4 °F 27.0 °F 62% 30.08 in 10.0 mi NW 8.1 mph - N/A   Overcast
8:53 PM 37.9 °F 32.7 °F 28.0 °F 68% 30.09 in 10.0 mi WNW 6.9 mph - N/A   Overcast
9:53 PM 37.9 °F 33.5 °F 28.9 °F 70% 30.10 in 10.0 mi West 5.8 mph - N/A   Overcast
10:53 PM 37.9 °F 32.1 °F 28.0 °F 68% 30.10 in 10.0 mi WNW 8.1 mph - N/A   Overcast
11:53 PM 37.0 °F 32.4 °F 28.9 °F 73% 30.11 in 10.0 mi West 5.8 mph - N/A   Overcast